Regional Weather Roundup
Issued by NWS

Home | Current Version | Previous Version | Graphics & Text | Print | Product List | Glossary On
Versions: 1 2 3 4 5 6 7 8 9 10 11 12 13 14 15 16 17 18 19 20 21 22 23 24 25 26 27 28 29 30 31 32 33 34 35 36 37 38 39 40 41 42 43 44 45 46 47 48 49 50
819
ASUS45 KBOI 252110
RWRID

IDAHO REGIONAL WEATHER ROUNDUP
NATIONAL WEATHER SERVICE BOISE ID
300 PM MDT SUN JUN 25 2017

NOTE: "FAIR" INDICATES FEW OR NO CLOUDS BELOW 12000 FEET
WITH NO SIGNIFICANT WEATHER AND/OR OBSTRUCTIONS TO VISIBILITY

IDZ012-014-252200-
SOUTHWEST IDAHO


CITY           SKY/WX    TMP DP  RH WIND       PRES   REMARKS
BOISE          SUNNY     94  39  14 CALM      30.06F HX  90
CALDWELL       SUNNY     92  52  25 N8        30.05F
MOUNTAIN HOME  SUNNY     92  33  12 SE8       30.07F
$$

IDZ016-017-252200-
SOUTHCENTRAL IDAHO


CITY           SKY/WX    TMP DP  RH WIND       PRES   REMARKS
BURLEY         SUNNY     87  44  22 NE7       30.15F
JEROME         SUNNY     89  33  13 VRB3      30.16F
TWIN FALLS     SUNNY     88  43  20 NE10      30.16F
$$

IDZ019>023-252200-
SOUTHEAST IDAHO


CITY           SKY/WX    TMP DP  RH WIND       PRES   REMARKS
IDAHO FALLS    SUNNY     82  42  24 W5        30.24F
POCATELLO      MOSUNNY   87  46  24 NW9       30.21F
REXBURG        SUNNY     81  36  19 W6        30.25F
$$

IDZ006-010-011-018-031-032-252200-
CENTRAL IDAHO MOUNTAINS


CITY           SKY/WX    TMP DP  RH WIND       PRES   REMARKS
MCCALL         SUNNY     83  40  21 SE7       30.20F
HAILEY         SUNNY     82  43  24 SE6       30.27F
STANLEY          N/A     83  35  18 NW9       30.31F
SALMON         SUNNY     82  45  26 NW7       30.15F
CHALLIS        SUNNY     85  36  17 VRB5      30.21F
$$

IDZ002-004-006-007-026-252200-
NORTHERN IDAHO


CITY           SKY/WX    TMP DP  RH WIND       PRES   REMARKS
LEWISTON       SUNNY     93  54  26 VRB6      29.98F HX  91
LOWELL           N/A     97  53  22 CALM      29.95F HX  94
COEUR D`ALENE  MOSUNNY   87  46  24 NE6       30.07F
MULLAN PASS    SUNNY     74  32  21 VRB3      30.31F
$$




USA.gov is the U.S. government's official web portal to all federal, state and local government web resources and services.